Weather History for Bishop, CA

Change the Weather History Date:

Thursday, October 18, 2012

  Actual Average Record
Temperature  
Mean Temperature 60 °F 56 °F  
Max Temperature 82 °F 75 °F 88 °F (1988)
Min Temperature 38 °F 37 °F 24 °F (1998)
Degree Days  
Heating Degree Days 5 9  
Month to date heating degree days 79 113  
Since 1 July heating degree days 79 156  
Cooling Degree Days 0 0  
Month to date cooling degree days 15 7  
Year to date cooling degree days 1161 1103  
Growing Degree Days 10 (Base 50)    
Moisture  
Dew Point 25 °F    
Average Humidity 35    
Maximum Humidity 59    
Minimum Humidity 10    
Precipitation  
Precipitation 0.00 in 0.01 in 0.16 in (2010)
Month to date precipitation 0.42 0.16  
Year to date precipitation 2.67 3.72  
Snow  
Snow 0.00 in 0.00 in T in (1943)
Month to date snowfall 0.0 0.0  
Since 1 July snowfall 0.0 0.0  
Since 1 September snowfall 0.0 0.0  
Snow Depth 0.00 in    
Sea Level Pressure  
Sea Level Pressure 30.08 in    
Wind  
Wind Speed 6 mph (WNW)    
Max Wind Speed 14 mph    
Max Gust Speed 18 mph    
Visibility 10 miles    
Events      
T = Trace of Precipitation, MM = Missing Value Source: NWS Daily Summary

Daily Weather History Graph

Daily Weather History Graph

Search for Another Location

Airport:

Trip Planner

Search our weather history database for the weather conditions in past years. The results will help you decide how hot, cold, wet, or windy it might be!

Date:

Astronomy

Oct. 18, 2012 Rise Set
Actual Time 7:04 AM PDT 6:11 PM PDT
Civil Twilight 6:38 AM PDT 6:37 PM PDT
Nautical Twilight 6:08 AM PDT 7:08 PM PDT
Astronomical Twilight 5:37 AM PDT 7:38 PM PDT
Moon 10:47 AM PDT (10/18) 8:55 PM PDT (10/18)
Length of Visible Light 11h 59m
Length of Day
11h 06m
Waxing Crescent, 15% of the Moon is Illuminated
Oct 18
Waxing Crescent
Oct 21
First Quarter
Oct 29
Full
Nov 6
Last Quarter
Nov 13
New

Hourly Weather History & Observations

Time (PDT) Temp. Windchill Dew Point Humidity Pressure Visibility Wind Dir Wind Speed Gust Speed Precip Events Conditions
12:56 AM 46.9 °F - 28.9 °F 50% 30.06 in 10.0 mi NNW 6.9 mph - N/A   Clear
1:56 AM 48.0 °F - 27.0 °F 44% 30.06 in 10.0 mi WNW 4.6 mph - N/A   Clear
2:56 AM 42.8 °F 40.1 °F 28.4 °F 57% 30.16 in 10.0 mi NNW 4.6 mph - N/A   Clear
3:56 AM 45.0 °F 42.6 °F 27.0 °F 49% 30.06 in 10.0 mi NW 4.6 mph - N/A   Clear
4:56 AM 43.0 °F 40.3 °F 27.0 °F 53% 30.08 in 10.0 mi NNW 4.6 mph - N/A   Clear
5:56 AM 44.1 °F 40.1 °F 26.1 °F 49% 30.10 in 10.0 mi WNW 6.9 mph - N/A   Clear
6:56 AM 39.2 °F 35.9 °F 26.6 °F 61% 30.20 in 10.0 mi North 4.6 mph - N/A   Clear
7:56 AM 45.0 °F 41.8 °F 28.0 °F 52% 30.17 in 10.0 mi WNW 5.8 mph - N/A   Clear
8:56 AM 57.2 °F - 26.6 °F 31% 30.24 in 10.0 mi NW 4.6 mph - N/A   Clear
9:56 AM 64.9 °F - 21.9 °F 19% 30.14 in 10.0 mi NW 8.1 mph - N/A   Clear
10:56 AM 71.1 °F - 21.9 °F 16% 30.12 in 10.0 mi Variable 3.5 mph - N/A   Clear
11:56 AM 75.0 °F - 19.9 °F 13% 30.09 in 10.0 mi Variable 3.5 mph - N/A   Clear
12:56 PM 75.9 °F - 19.9 °F 12% 30.07 in 10.0 mi West 3.5 mph - N/A   Clear
1:56 PM 79.0 °F - 21.0 °F 12% 30.03 in 10.0 mi Variable 3.5 mph - N/A   Clear
2:56 PM 81.0 °F - 21.9 °F 11% 30.02 in 10.0 mi South 8.1 mph - N/A   Clear
3:56 PM 82.0 °F - 21.9 °F 11% 29.99 in 10.0 mi South 9.2 mph - N/A   Clear
4:56 PM 80.1 °F - 21.9 °F 12% 29.99 in 10.0 mi South 10.4 mph - N/A   Clear
5:56 PM 73.9 °F - 23.0 °F 15% 30.00 in 10.0 mi South 8.1 mph - N/A   Clear
6:56 PM 69.1 °F - 25.0 °F 19% 30.03 in 10.0 mi South 9.2 mph - N/A   Clear
7:56 PM 63.0 °F - 27.0 °F 26% 30.05 in 10.0 mi WSW 3.5 mph - N/A   Clear
8:56 PM 53.1 °F - 28.9 °F 40% 30.05 in 10.0 mi NNW 6.9 mph - N/A   Clear
9:56 PM 52.0 °F - 28.9 °F 41% 30.05 in 10.0 mi NNW 6.9 mph - N/A   Clear
10:56 PM 48.0 °F - 28.9 °F 48% 30.06 in 10.0 mi NW 3.5 mph - N/A   Clear
11:56 PM 46.9 °F - 30.0 °F 52% 30.06 in 10.0 mi NW 5.8 mph - N/A   Clear